HVDC transfer

From www.emi.ea.govt.nz provided by the Electricity Authority (New Zealand)
Run at: 20240506033604

Parameters
Date range,21 Jan 2020 - 21 Jan 2020
Time scale,Trading period
Show,Average flow (MW)

Period start,Period end,Trading period,Direction,Energy transfer (GWh),Peak flow (MW),Average flow (MW)
21/01/2020 00:00:00,21/01/2020 00:30:00,1,Northward at Haywards,0.051,101,101
21/01/2020 00:30:00,21/01/2020 01:00:00,2,Northward at Haywards,0.017,34,34
21/01/2020 01:00:00,21/01/2020 01:30:00,3,Northward at Haywards,0.024,47,47
21/01/2020 01:30:00,21/01/2020 02:00:00,4,Northward at Haywards,0.005,9,9
21/01/2020 03:00:00,21/01/2020 03:30:00,7,Southward at Benmore,-0.003,-6,-6
21/01/2020 05:00:00,21/01/2020 05:30:00,11,Northward at Haywards,0.033,66,66
21/01/2020 05:30:00,21/01/2020 06:00:00,12,Northward at Haywards,0.068,136,136
21/01/2020 06:00:00,21/01/2020 06:30:00,13,Northward at Haywards,0.080,159,159
21/01/2020 06:30:00,21/01/2020 07:00:00,14,Northward at Haywards,0.097,193,193
21/01/2020 07:00:00,21/01/2020 07:30:00,15,Northward at Haywards,0.112,223,223
21/01/2020 07:30:00,21/01/2020 08:00:00,16,Northward at Haywards,0.123,245,245
21/01/2020 08:00:00,21/01/2020 08:30:00,17,Northward at Haywards,0.147,293,293
21/01/2020 08:30:00,21/01/2020 09:00:00,18,Northward at Haywards,0.149,297,297
21/01/2020 09:00:00,21/01/2020 09:30:00,19,Northward at Haywards,0.156,312,312
21/01/2020 09:30:00,21/01/2020 10:00:00,20,Northward at Haywards,0.155,309,309
21/01/2020 10:00:00,21/01/2020 10:30:00,21,Northward at Haywards,0.160,319,319
21/01/2020 10:30:00,21/01/2020 11:00:00,22,Northward at Haywards,0.161,322,322
21/01/2020 11:00:00,21/01/2020 11:30:00,23,Northward at Haywards,0.132,264,264
21/01/2020 11:30:00,21/01/2020 12:00:00,24,Northward at Haywards,0.142,284,284
21/01/2020 12:00:00,21/01/2020 12:30:00,25,Northward at Haywards,0.143,286,286
21/01/2020 12:30:00,21/01/2020 13:00:00,26,Northward at Haywards,0.122,244,244
21/01/2020 13:00:00,21/01/2020 13:30:00,27,Northward at Haywards,0.122,243,243
21/01/2020 13:30:00,21/01/2020 14:00:00,28,Northward at Haywards,0.120,239,239
21/01/2020 14:00:00,21/01/2020 14:30:00,29,Northward at Haywards,0.114,227,227
21/01/2020 14:30:00,21/01/2020 15:00:00,30,Northward at Haywards,0.109,217,217
21/01/2020 15:00:00,21/01/2020 15:30:00,31,Northward at Haywards,0.107,214,214
21/01/2020 15:30:00,21/01/2020 16:00:00,32,Northward at Haywards,0.116,231,231
21/01/2020 16:00:00,21/01/2020 16:30:00,33,Northward at Haywards,0.115,230,230
21/01/2020 16:30:00,21/01/2020 17:00:00,34,Northward at Haywards,0.131,261,261
21/01/2020 17:00:00,21/01/2020 17:30:00,35,Northward at Haywards,0.140,280,280
21/01/2020 17:30:00,21/01/2020 18:00:00,36,Northward at Haywards,0.134,267,267
21/01/2020 18:00:00,21/01/2020 18:30:00,37,Northward at Haywards,0.126,252,252
21/01/2020 18:30:00,21/01/2020 19:00:00,38,Northward at Haywards,0.129,257,257
21/01/2020 19:00:00,21/01/2020 19:30:00,39,Northward at Haywards,0.133,265,265
21/01/2020 19:30:00,21/01/2020 20:00:00,40,Northward at Haywards,0.129,258,258
21/01/2020 20:00:00,21/01/2020 20:30:00,41,Northward at Haywards,0.120,239,239
21/01/2020 20:30:00,21/01/2020 21:00:00,42,Northward at Haywards,0.127,253,253
21/01/2020 21:00:00,21/01/2020 21:30:00,43,Northward at Haywards,0.115,230,230
21/01/2020 21:30:00,21/01/2020 22:00:00,44,Northward at Haywards,0.092,183,183
21/01/2020 22:00:00,21/01/2020 22:30:00,45,Northward at Haywards,0.076,152,152
21/01/2020 22:30:00,21/01/2020 23:00:00,46,Northward at Haywards,0.070,140,140
21/01/2020 23:00:00,21/01/2020 23:30:00,47,Northward at Haywards,0.056,112,112
21/01/2020 23:30:00,22/01/2020 00:00:00,48,Northward at Haywards,0.043,85,85
